Location: Staunton
(38.1490°N, 79.0720°W)
Time: 21:14:38
(UTC-04:00)

ISS - Pass Details

Date: 09 July 2020
Orbit: 417 x 421 km, 51.6° (Epoch: 08 July)

Event Time Altitude Azimuth Distance (km) Brightness Sun altitude
Exits shadow 02:49:58 - 318° (NW) 1,587 -0.6 -26.1°
Reaches altitude 10° 02:50:34 10° 327° (NNW) 1,495 -0.6 -26.1°
Maximum altitude 02:51:36 11° 345° (NNW) 1,433 -0.4 -26.0°
Drops below altitude 10° 02:52:37 10° 3° (N) 1,496 -0.1 -25.9°
Sets 02:56:06 0° 41° (NE) 2,361 1.2 -25.6°
